KUIPER-00058

导读 | 豆包AI

KUIPER-00058是美国亚马逊柯伊伯星座项目下的一颗低轨通信卫星,于2025年6月23日发射升空,国际标识为2025-134U,目前在轨运行,已飞行172天。该卫星运行在近地轨道,轨道半长轴7007.62km,倾角51.9°,周期约97.3分钟。作为柯伊伯全球卫星互联网计划的组成部分,它将为全球提供高速低延迟的互联网接入服务,助力偏远地区联网,推动天地一体化信息网络建设。

Basic Information
目录编号:
64518
目录名称:
KUIPER-00058
国际标识:
2025-134U
轨道中心:
EARTH
卫星名称:
KUIPER-00058
卫星全名:
KUIPER-00058
卫星状态:
在轨 (已飞行309 天)
发射日期:
2025-06-23 UTC
国别 :
美国 (US)
星等 :
--
Orbit Information
数据来源 国际轨道数据
星历时间: 2026-04-28T11:18:21+0800
18小时前
查看轨道信息
半长轴: 7007.683km
偏心率: 0.0000738
轨道倾角: 51.903°
近地点辐角 105.048°
升交点赤经 6.878°
平近点角 255.057°
近地点: 629.028km
远地点: 630.064km
周期: 97.302分钟
每日圈数: 14.799298
Detailed Information
使用方式:
暂无
2D Orbit Map
3D Orbit Map
Orbit Altitude Analysis Chart
Orbit Inclination Analysis Chart
Orbit Comprehensive Analysis Chart
View Comprehensive Chart